Location: Newark
(43.4306°N, 0.3089°E)
Time: 11:52:44
(UTC+00:00)

S-56A Canister/Altair - Pass Details

Date: 20 August 2019
Orbit: 633 x 2499 km, 38.9° (Epoch: 21 September)

Event Time Altitude Azimuth Distance (km) Brightness Sun altitude
Rises 21:09:13 0° 225° (SW) 3,137 10.7 -21.7°
Reaches altitude 10° 21:12:04 10° 212° (SSW) 2,090 9.6 -22.1°
Enters shadow 21:12:11 11° 211° (SSW) 2,047 9.6 -22.1°
Maximum altitude 21:15:48 24° 157° (SSE) 1,294 - -22.6°
Drops below altitude 10° 21:19:26 10° 102° (ESE) 2,033 - -23.0°
Sets 21:22:10 0° 88° (E) 3,029 - -23.4°
